Location: Hradec Kralove
(50.2170°N, 15.8330°E)
Time: 19:43:55
(UTC+01:00)

Altair - Visible Passes

Search period start: 30 January 2023 00:00
Search period end: 09 February 2023 00:00
Orbit: 1501 x 1683 km, 47.2° (Epoch: 29 January)

Date Brightness Start Highest point End Pass type
(mag) Time Alt. Az. Time Alt. Az. Time Alt. Az.
30 Jan 9.3 04:21:21 12° SSW 04:21:21 12° SSW 04:22:11 10° S visible
30 Jan 8.2 19:26:31 10° SSW 19:34:51 34° SE 19:34:55 34° SE visible
30 Jan 8.7 21:28:48 10° WSW 21:32:59 30° SW 21:32:59 30° SW visible
31 Jan 8.2 19:01:40 10° SSW 19:09:46 32° SE 19:11:33 30° ESE visible
31 Jan 8.3 21:03:42 10° WSW 21:09:36 41° SW 21:09:36 41° SW visible
01 Feb 8.4 18:36:51 10° S 18:44:43 29° SE 18:48:08 24° ESE visible
01 Feb 7.8 20:38:35 10° SW 20:46:10 53° SSW 20:46:10 53° SSW visible
01 Feb 9.4 22:42:41 10° W 22:44:13 16° W 22:44:13 16° W visible
02 Feb 8.5 18:12:04 10° S 18:19:39 27° SE 18:24:39 18° E visible
02 Feb 7.6 20:13:30 10° SW 20:22:42 59° SSE 20:22:42 59° SSE visible
02 Feb 9.0 22:17:30 10° W 22:20:44 24° W 22:20:44 24° W visible
03 Feb 8.6 17:47:19 10° S 17:54:36 25° SE 18:01:07 13° E visible
03 Feb 7.6 19:48:26 10° SW 19:57:49 57° SSE 19:59:09 53° SE visible
03 Feb 8.6 21:52:20 10° W 21:57:12 35° WSW 21:57:12 35° WSW visible
04 Feb 8.7 17:22:38 10° S 17:29:34 23° SE 17:36:39 10° E visible
04 Feb 7.7 19:23:22 10° SW 19:32:40 54° SSE 19:35:34 43° ESE visible
04 Feb 8.1 21:27:09 10° W 21:33:37 48° WSW 21:33:37 48° WSW visible
05 Feb 7.8 18:58:20 10° SW 19:07:32 52° SSE 19:11:57 32° E visible
05 Feb 7.7 21:01:59 10° WSW 21:09:59 63° SW 21:09:59 63° SW visible
05 Feb 9.4 23:06:31 10° W 23:08:01 16° W 23:08:01 16° W visible
06 Feb 7.9 18:33:19 10° SW 18:42:23 49° SSE 18:48:18 24° E visible
06 Feb 7.5 20:36:49 10° WSW 20:46:19 74° S 20:46:19 74° S visible
06 Feb 9.1 22:41:19 10° W 22:44:21 23° W 22:44:21 23° W visible
07 Feb 8.0 18:08:19 10° SW 18:17:16 47° SSE 18:24:36 17° E visible
07 Feb 7.4 20:11:40 10° WSW 20:21:22 74° S 20:22:38 67° SE visible
07 Feb 8.7 22:16:08 10° W 22:20:39 32° W 22:20:39 32° W visible
08 Feb 8.1 17:43:20 10° SW 17:52:09 44° SE 18:00:53 11° E visible
08 Feb 7.5 19:46:31 10° WSW 19:56:10 73° S 19:58:55 52° ESE visible
08 Feb 8.3 21:50:57 10° W 21:56:56 43° W 21:56:56 43° W visible
